User: anonymous   Login
Location: Unspecified
(0.0000°N, 0.0000°E)
Time: 10:28:13
(UTC+00:00)
Language:

PCSat - Orbit

View from above orbital plane
View from above orbital plane
View from above satellite
View from above satellite

Ground track
Ground track

The orbit data is extracted from the following two-line orbital elements,

1 26931U 01043C   20219.85579502 -.00000035 +00000-0 +18366-4 0  9991
2 26931 067.0523 012.3248 0006011 274.8316 085.2099 14.30583821984284
Epoch (UTC): 06 August 2020 20:32:20
Eccentricity: 0.0006011
inclination: 67.0523°
perigee height: 785 km
apogee height: 794 km
right ascension of ascending node: 12.3248°
argument of perigee: 274.8316°
revolutions per day: 14.30583821
mean anomaly at epoch: 85.2099°
orbit number at epoch: 98428

The dashed part of the orbit path shows where the satellite is in the earth's shadow,  

DLR